Location: Praha
(50.0830°N, 14.4670°E)
Time: 17:43:37
(UTC+02:00)

ISS - Pass Details

Date: 17 July 2021
Orbit: 419 x 421 km, 51.6° (Epoch: 02 August)

Event Time Altitude Azimuth Distance (km) Brightness Sun altitude
Rises 01:22:14 0° 284° (WNW) 2,371 0.2 -18.7°
Reaches altitude 10° 01:24:21 10° 285° (WNW) 1,505 -0.8 -18.6°
Maximum altitude 01:27:44 80° 13° (NNE) 431 -3.7 -18.6°
Drops below altitude 10° 01:31:06 10° 101° (E) 1,501 -1.0 -18.5°
Sets 01:33:12 0° 102° (ESE) 2,363 0.0 -18.5°
